AIE508 CYZV-CYVP

Flight info

Callsign AIE508
Flight time 1h 15m
Altitude 33000
Route DCT SHAIK DCT MCKEE DCT
Aircraft B738/M-SDE2E3FGHIRWXY/LB1

Departure

Time 2026-05-04 03:09
Airport Sept-Îles Airport (CYZV)

Arrival

Time 2026-05-04 04:25
Airport Kuujjuaq Airport (CYVP)
Time Latitude Longitude Altitude Speed Heading
2026-05-04 02:48 50.21912 -66.26318 178 ft 0 kts 247°
2026-05-04 03:05 50.21911 -66.26322 178 ft 2 kts 247°
2026-05-04 03:05 50.21903 -66.26381 178 ft 9 kts 252°
2026-05-04 03:06 50.21871 -66.26515 178 ft 17 kts 248°
2026-05-04 03:06 50.21824 -66.26688 178 ft 17 kts 238°
2026-05-04 03:06 50.21762 -66.26840 178 ft 16 kts 248°
2026-05-04 03:06 50.21721 -66.27005 178 ft 17 kts 249°
2026-05-04 03:07 50.21678 -66.27178 178 ft 16 kts 248°
2026-05-04 03:07 50.21686 -66.27333 178 ft 15 kts 293°
2026-05-04 03:07 50.21726 -66.27474 178 ft 12 kts 295°
2026-05-04 03:07 50.21731 -66.27490 177 ft 5 kts 295°
2026-05-04 03:08 50.21767 -66.27608 172 ft 17 kts 293°
2026-05-04 03:08 50.21784 -66.27790 173 ft 14 kts 269°
2026-05-04 03:08 50.21761 -66.27794 173 ft 4 kts 72°
2026-05-04 03:08 50.21762 -66.27791 173 ft 0 kts 71°
2026-05-04 03:09 50.21837 -66.27492 172 ft 70 kts 68°
2026-05-04 03:09 50.22106 -66.26421 176 ft 140 kts 68°
2026-05-04 03:09 50.22508 -66.24820 566 ft 165 kts 67°
2026-05-04 03:09 50.22948 -66.23100 1288 ft 176 kts 68°
2026-05-04 03:10 50.23396 -66.21268 2063 ft 187 kts 68°
2026-05-04 03:10 50.23899 -66.19226 2372 ft 214 kts 66°
2026-05-04 03:10 50.24483 -66.17026 2871 ft 222 kts 64°
2026-05-04 03:10 50.25427 -66.15180 3522 ft 223 kts 32°
2026-05-04 03:11 50.26988 -66.14566 3901 ft 245 kts
2026-05-04 03:11 50.28718 -66.14859 4621 ft 254 kts 353°
2026-05-04 03:11 50.30457 -66.15385 5526 ft 256 kts 352°
2026-05-04 03:11 50.32229 -66.15965 6280 ft 264 kts 351°
2026-05-04 03:12 50.34044 -66.16556 7077 ft 269 kts 352°
2026-05-04 03:12 50.35887 -66.17151 7911 ft 273 kts 352°
2026-05-04 03:12 50.37736 -66.17741 8709 ft 278 kts 351°
2026-05-04 03:12 50.39649 -66.18345 9486 ft 283 kts 351°
2026-05-04 03:13 50.41599 -66.18948 10300 ft 288 kts 351°
2026-05-04 03:13 50.43630 -66.19574 10620 ft 311 kts 351°
2026-05-04 03:13 50.45813 -66.20246 11127 ft 324 kts 351°
2026-05-04 03:13 50.48038 -66.20934 11866 ft 329 kts 351°
2026-05-04 03:14 50.50294 -66.21630 12655 ft 332 kts 351°
2026-05-04 03:14 50.52573 -66.22332 13378 ft 337 kts 351°
2026-05-04 03:14 50.54899 -66.23048 14029 ft 343 kts 351°
2026-05-04 03:14 50.57260 -66.23774 14699 ft 349 kts 351°
2026-05-04 03:15 50.59660 -66.24512 15378 ft 353 kts 351°
2026-05-04 03:15 50.62093 -66.25261 16024 ft 359 kts 351°
2026-05-04 03:15 50.64559 -66.26020 16662 ft 364 kts 351°
2026-05-04 03:15 50.67065 -66.26792 17286 ft 369 kts 351°
2026-05-04 03:16 50.69604 -66.27575 17897 ft 374 kts 351°
2026-05-04 03:16 50.72177 -66.28370 18492 ft 379 kts 351°
2026-05-04 03:16 50.74782 -66.29176 19081 ft 384 kts 351°
2026-05-04 03:16 50.77416 -66.29992 19687 ft 388 kts 350°
2026-05-04 03:17 50.80074 -66.30817 20262 ft 392 kts 350°
2026-05-04 03:17 50.82763 -66.31652 20796 ft 396 kts 350°
2026-05-04 03:17 50.85485 -66.32497 21331 ft 401 kts 350°
2026-05-04 03:17 50.88234 -66.33353 21871 ft 404 kts 350°
2026-05-04 03:18 50.91007 -66.34216 22407 ft 408 kts 349°
2026-05-04 03:18 50.93804 -66.35087 22892 ft 412 kts 349°
2026-05-04 03:18 50.96633 -66.35970 23353 ft 416 kts 349°
2026-05-04 03:18 50.99483 -66.36861 23813 ft 420 kts 349°
2026-05-04 03:19 51.02363 -66.37763 24283 ft 423 kts 349°
2026-05-04 03:19 51.05265 -66.38673 24711 ft 427 kts 349°
2026-05-04 03:19 51.08200 -66.39595 25067 ft 433 kts 349°
2026-05-04 03:19 51.11171 -66.40529 25439 ft 438 kts 349°
2026-05-04 03:20 51.14175 -66.41474 25830 ft 442 kts 349°
2026-05-04 03:20 51.17170 -66.42417 26190 ft 447 kts 349°
2026-05-04 03:20 51.20235 -66.43384 26536 ft 451 kts 349°
2026-05-04 03:20 51.23334 -66.44364 26886 ft 456 kts 349°
2026-05-04 03:21 51.26461 -66.45353 27201 ft 461 kts 349°
2026-05-04 03:21 51.29617 -66.46354 27548 ft 464 kts 349°
2026-05-04 03:21 51.32797 -66.47361 27893 ft 468 kts 349°
2026-05-04 03:21 51.36008 -66.48380 28181 ft 472 kts 349°
2026-05-04 03:22 51.39246 -66.49410 28476 ft 477 kts 349°
2026-05-04 03:22 51.42515 -66.50453 28822 ft 480 kts 349°
2026-05-04 03:22 51.45793 -66.51500 29182 ft 481 kts 349°
2026-05-04 03:22 51.49082 -66.52548 29535 ft 483 kts 348°
2026-05-04 03:23 51.52380 -66.53602 29912 ft 484 kts 348°
2026-05-04 03:23 51.55686 -66.54636 30266 ft 484 kts 351°
2026-05-04 03:23 51.59036 -66.55231 30589 ft 485 kts 357°
2026-05-04 03:23 51.62413 -66.55526 30904 ft 487 kts 359°
2026-05-04 03:24 51.65798 -66.55724 31239 ft 487 kts 359°
2026-05-04 03:24 51.68039 -66.55841 31484 ft 486 kts 360°
2026-05-04 03:24 51.71429 -66.56025 31815 ft 488 kts 359°
2026-05-04 03:24 51.74819 -66.56232 32156 ft 488 kts 359°
2026-05-04 03:25 51.78213 -66.56465 32512 ft 488 kts 359°
2026-05-04 03:25 51.81611 -66.56717 32760 ft 491 kts 359°
2026-05-04 03:25 51.85040 -66.56983 32733 ft 496 kts 359°
2026-05-04 03:26 51.91908 -66.57536 32720 ft 491 kts 359°
2026-05-04 03:26 51.98691 -66.58086 32742 ft 488 kts 358°
2026-05-04 03:27 52.05482 -66.58630 32743 ft 490 kts 358°
2026-05-04 03:27 52.12296 -66.59174 32750 ft 491 kts 358°
2026-05-04 03:28 52.19136 -66.59722 32747 ft 493 kts 358°
2026-05-04 03:28 52.25993 -66.60274 32736 ft 494 kts 358°
2026-05-04 03:29 52.32865 -66.60830 32733 ft 494 kts 358°
2026-05-04 03:29 52.39730 -66.61387 32729 ft 494 kts 358°
2026-05-04 03:30 52.46573 -66.61944 32727 ft 492 kts 358°
2026-05-04 03:30 52.53400 -66.62501 32722 ft 490 kts 358°
2026-05-04 03:31 52.60212 -66.63058 32735 ft 490 kts 358°
2026-05-04 03:31 52.67017 -66.63618 32731 ft 490 kts 358°
2026-05-04 03:32 52.73820 -66.64177 32730 ft 490 kts 357°
2026-05-04 03:32 52.80629 -66.64740 32730 ft 490 kts 357°
2026-05-04 03:33 52.87401 -66.65303 32736 ft 491 kts 357°
2026-05-04 03:33 52.94227 -66.65869 32734 ft 491 kts 357°
2026-05-04 03:34 53.01058 -66.66434 32730 ft 492 kts 357°
2026-05-04 03:34 53.07896 -66.67005 32735 ft 492 kts 357°
2026-05-04 03:35 53.14743 -66.67581 32732 ft 493 kts 357°
2026-05-04 03:35 53.21590 -66.68160 32735 ft 493 kts 357°
2026-05-04 03:36 53.28443 -66.68738 32725 ft 493 kts 357°
2026-05-04 03:36 53.35287 -66.69317 32739 ft 492 kts 356°
2026-05-04 03:37 53.42130 -66.69899 32738 ft 492 kts 356°
2026-05-04 03:37 53.48980 -66.70487 32744 ft 492 kts 356°
2026-05-04 03:38 53.55825 -66.71071 32740 ft 493 kts 356°
2026-05-04 03:38 53.62673 -66.71659 32746 ft 492 kts 356°
2026-05-04 03:39 53.69461 -66.72243 32748 ft 492 kts 356°
2026-05-04 03:39 53.76297 -66.72831 32751 ft 492 kts 356°
2026-05-04 03:40 53.83144 -66.73423 32752 ft 492 kts 356°
2026-05-04 03:40 53.89988 -66.74018 32763 ft 493 kts 356°
2026-05-04 03:41 53.96842 -66.74617 32759 ft 493 kts 356°
2026-05-04 03:41 54.03696 -66.75218 32759 ft 493 kts 356°
2026-05-04 03:42 54.10558 -66.75820 32770 ft 494 kts 355°
2026-05-04 03:42 54.17420 -66.76424 32770 ft 494 kts 355°
2026-05-04 03:43 54.24296 -66.77031 32768 ft 495 kts 355°
2026-05-04 03:43 54.31165 -66.77641 32761 ft 495 kts 355°
2026-05-04 03:44 54.38036 -66.78253 32775 ft 494 kts 355°
2026-05-04 03:44 54.44901 -66.78865 32780 ft 494 kts 355°
2026-05-04 03:45 54.51759 -66.79480 32770 ft 493 kts 355°
2026-05-04 03:45 54.58617 -66.80097 32781 ft 493 kts 355°
2026-05-04 03:46 54.65464 -66.80713 32775 ft 492 kts 355°
2026-05-04 03:46 54.72301 -66.81331 32779 ft 492 kts 355°
2026-05-04 03:47 54.79132 -66.81952 32776 ft 491 kts 355°
2026-05-04 03:47 54.85961 -66.82575 32776 ft 491 kts 355°
2026-05-04 03:48 54.92784 -66.83199 32775 ft 491 kts 355°
2026-05-04 03:48 54.99503 -66.83818 32771 ft 491 kts 354°
2026-05-04 03:49 55.06321 -66.84447 32775 ft 491 kts 354°
2026-05-04 03:49 55.13140 -66.85075 32783 ft 491 kts 354°
2026-05-04 03:50 55.19967 -66.85704 32770 ft 491 kts 354°
2026-05-04 03:50 55.26737 -66.86334 32782 ft 491 kts 354°
2026-05-04 03:51 55.33561 -66.86970 32777 ft 491 kts 354°
2026-05-04 03:51 55.40385 -66.87611 32775 ft 491 kts 354°
2026-05-04 03:52 55.47211 -66.88253 32780 ft 491 kts 354°
2026-05-04 03:52 55.54040 -66.88896 32786 ft 491 kts 354°
2026-05-04 03:53 55.60869 -66.89540 32790 ft 491 kts 354°
2026-05-04 03:53 55.67695 -66.90188 32784 ft 491 kts 354°
2026-05-04 03:54 55.74527 -66.90837 32786 ft 491 kts 354°
2026-05-04 03:54 55.81355 -66.91491 32785 ft 491 kts 354°
2026-05-04 03:55 55.88176 -66.92146 32788 ft 491 kts 354°
2026-05-04 03:55 55.94969 -66.92799 32732 ft 483 kts 354°
2026-05-04 03:55 55.98310 -66.93119 32411 ft 478 kts 353°
2026-05-04 03:56 56.01617 -66.93437 32090 ft 474 kts 353°
2026-05-04 03:56 56.04898 -66.93756 31743 ft 471 kts 353°
2026-05-04 03:56 56.08161 -66.94073 31380 ft 469 kts 353°
2026-05-04 03:56 56.11411 -66.94389 31022 ft 466 kts 353°
2026-05-04 03:57 56.14643 -66.94706 30649 ft 464 kts 353°
2026-05-04 03:57 56.17858 -66.95020 30293 ft 463 kts 353°
2026-05-04 03:57 56.21074 -66.95336 29928 ft 462 kts 352°
2026-05-04 03:57 56.24280 -66.95651 29558 ft 460 kts 352°
2026-05-04 03:58 56.30647 -66.96275 28825 ft 456 kts 353°
2026-05-04 03:58 56.33771 -66.96582 28455 ft 455 kts 353°
2026-05-04 03:58 56.36924 -66.96889 28084 ft 452 kts 353°
2026-05-04 03:59 56.40059 -66.97199 27708 ft 450 kts 353°
2026-05-04 03:59 56.43180 -66.97506 27338 ft 448 kts 353°
2026-05-04 03:59 56.46287 -66.97817 26968 ft 445 kts 353°
2026-05-04 03:59 56.49371 -66.98122 26600 ft 443 kts 353°
2026-05-04 04:00 56.52440 -66.98425 26227 ft 441 kts 353°
2026-05-04 04:00 56.55495 -66.98728 25865 ft 439 kts 353°
2026-05-04 04:00 56.58535 -66.99032 25503 ft 436 kts 353°
2026-05-04 04:00 56.61555 -66.99334 25143 ft 433 kts 354°
2026-05-04 04:01 56.64558 -66.99634 24785 ft 431 kts 353°
2026-05-04 04:01 56.67514 -67.00263 24418 ft 424 kts 344°
2026-05-04 04:01 56.70286 -67.01753 24262 ft 410 kts 334°
2026-05-04 04:01 56.72950 -67.03541 23926 ft 407 kts 334°
2026-05-04 04:02 56.75594 -67.05338 23591 ft 404 kts 334°
2026-05-04 04:02 56.78167 -67.07084 23348 ft 394 kts 334°
2026-05-04 04:02 56.80731 -67.08815 22918 ft 390 kts 334°
2026-05-04 04:02 56.83257 -67.10513 22587 ft 384 kts 334°
2026-05-04 04:03 56.85758 -67.12192 22263 ft 382 kts 334°
2026-05-04 04:03 56.88247 -67.13862 21928 ft 381 kts 335°
2026-05-04 04:03 56.90726 -67.15526 21599 ft 379 kts 335°
2026-05-04 04:03 56.93194 -67.17181 21265 ft 377 kts 335°
2026-05-04 04:04 56.95651 -67.18831 20936 ft 375 kts 335°
2026-05-04 04:04 56.98091 -67.20470 20606 ft 373 kts 335°
2026-05-04 04:04 57.00523 -67.22106 20273 ft 371 kts 335°
2026-05-04 04:04 57.02945 -67.23737 19942 ft 369 kts 335°
2026-05-04 04:05 57.05347 -67.25357 19615 ft 367 kts 335°
2026-05-04 04:05 57.07740 -67.26975 19290 ft 366 kts 335°
2026-05-04 04:05 57.10122 -67.28587 18961 ft 364 kts 335°
2026-05-04 04:05 57.12494 -67.30193 18635 ft 362 kts 336°
2026-05-04 04:06 57.14850 -67.31789 18310 ft 360 kts 336°
2026-05-04 04:06 57.17198 -67.33383 17983 ft 358 kts 336°
2026-05-04 04:06 57.19525 -67.34966 17657 ft 356 kts 336°
2026-05-04 04:06 57.21846 -67.36545 17339 ft 354 kts 336°
2026-05-04 04:07 57.24149 -67.38114 17021 ft 352 kts 336°
2026-05-04 04:07 57.26410 -67.39656 16703 ft 350 kts 336°
2026-05-04 04:07 57.28680 -67.41207 16480 ft 345 kts 336°
2026-05-04 04:07 57.30915 -67.42736 16208 ft 341 kts 336°
2026-05-04 04:08 57.33133 -67.44256 15913 ft 339 kts 336°
2026-05-04 04:08 57.35336 -67.45768 15624 ft 337 kts 336°
2026-05-04 04:08 57.37525 -67.47273 15328 ft 335 kts 336°
2026-05-04 04:08 57.39704 -67.48773 15022 ft 333 kts 336°
2026-05-04 04:09 57.41868 -67.50264 14724 ft 331 kts 336°
2026-05-04 04:09 57.44020 -67.51748 14421 ft 329 kts 336°
2026-05-04 04:09 57.46164 -67.53229 14119 ft 328 kts 336°
2026-05-04 04:09 57.48294 -67.54702 13816 ft 326 kts 337°
2026-05-04 04:10 57.50412 -67.56169 13521 ft 324 kts 337°
2026-05-04 04:10 57.52518 -67.57633 13234 ft 323 kts 337°
2026-05-04 04:10 57.54615 -67.59088 12928 ft 320 kts 337°
2026-05-04 04:10 57.56696 -67.60535 12634 ft 318 kts 337°
2026-05-04 04:11 57.58765 -67.61974 12341 ft 316 kts 337°
2026-05-04 04:11 57.60819 -67.63403 12050 ft 314 kts 337°
2026-05-04 04:11 57.62859 -67.64820 11762 ft 311 kts 337°
2026-05-04 04:11 57.64882 -67.66231 11478 ft 309 kts 337°
2026-05-04 04:12 57.66886 -67.67634 11189 ft 307 kts 337°
2026-05-04 04:12 57.68878 -67.69030 10908 ft 305 kts 337°
2026-05-04 04:12 57.70856 -67.70416 10625 ft 303 kts 337°
2026-05-04 04:12 57.72159 -67.71331 10448 ft 301 kts 337°
2026-05-04 04:13 57.74118 -67.72703 10166 ft 300 kts 337°
2026-05-04 04:13 57.76673 -67.74501 9959 ft 291 kts 337°
2026-05-04 04:13 57.78564 -67.75834 9681 ft 290 kts 337°
2026-05-04 04:13 57.80450 -67.77163 9421 ft 288 kts 337°
2026-05-04 04:14 57.81714 -67.78056 9235 ft 287 kts 337°
2026-05-04 04:14 57.84179 -67.79799 8898 ft 285 kts 337°
2026-05-04 04:14 57.85428 -67.80681 8723 ft 284 kts 337°
2026-05-04 04:14 57.87246 -67.81967 8466 ft 282 kts 337°
2026-05-04 04:15 57.89073 -67.83259 8204 ft 280 kts 337°
2026-05-04 04:15 57.90894 -67.84550 7964 ft 279 kts 337°
2026-05-04 04:15 57.92701 -67.85833 7706 ft 277 kts 337°
2026-05-04 04:15 57.94494 -67.87109 7448 ft 275 kts 337°
2026-05-04 04:16 57.96279 -67.88381 7197 ft 273 kts 337°
2026-05-04 04:16 57.98049 -67.89643 6950 ft 271 kts 337°
2026-05-04 04:16 57.99810 -67.90898 6699 ft 270 kts 337°
2026-05-04 04:16 58.01559 -67.92146 6453 ft 268 kts 337°
2026-05-04 04:17 58.03299 -67.93387 6207 ft 267 kts 337°
2026-05-04 04:17 58.05028 -67.94622 5969 ft 265 kts 337°
2026-05-04 04:17 58.06743 -67.95849 5723 ft 263 kts 337°
2026-05-04 04:17 58.08449 -67.97072 5486 ft 261 kts 337°
2026-05-04 04:18 58.10142 -67.98287 5242 ft 260 kts 338°
2026-05-04 04:18 58.11827 -67.99496 5001 ft 258 kts 338°
2026-05-04 04:18 58.13504 -68.00702 4754 ft 258 kts 338°
2026-05-04 04:18 58.15176 -68.01906 4503 ft 257 kts 338°
2026-05-04 04:19 58.16848 -68.03109 4243 ft 256 kts 338°
2026-05-04 04:19 58.18501 -68.04338 3995 ft 253 kts 333°
2026-05-04 04:19 58.19831 -68.06366 3769 ft 241 kts 309°
2026-05-04 04:19 58.20898 -68.08675 3550 ft 231 kts 309°
2026-05-04 04:20 58.21944 -68.10890 3450 ft 223 kts 310°
2026-05-04 04:20 58.22969 -68.13123 3338 ft 220 kts 303°
2026-05-04 04:20 58.23446 -68.15793 3219 ft 213 kts 267°
2026-05-04 04:20 58.23048 -68.18454 3208 ft 212 kts 237°
2026-05-04 04:21 58.22099 -68.20532 3141 ft 211 kts 222°
2026-05-04 04:21 58.21004 -68.22406 2927 ft 213 kts 220°
2026-05-04 04:21 58.19899 -68.24266 2718 ft 209 kts 220°
2026-05-04 04:21 58.18829 -68.26077 2473 ft 196 kts 220°
2026-05-04 04:22 58.17863 -68.27724 2252 ft 183 kts 220°
2026-05-04 04:22 58.16943 -68.29294 2029 ft 172 kts 220°
2026-05-04 04:22 58.16099 -68.30738 1856 ft 155 kts 220°
2026-05-04 04:22 58.15321 -68.32070 1621 ft 144 kts 220°
2026-05-04 04:23 58.14583 -68.33332 1552 ft 145 kts 220°
2026-05-04 04:23 58.13834 -68.34618 1398 ft 147 kts 221°
2026-05-04 04:23 58.13077 -68.35924 1113 ft 148 kts 220°
2026-05-04 04:23 58.12330 -68.37199 807 ft 141 kts 221°
2026-05-04 04:24 58.11620 -68.38413 613 ft 135 kts 220°
2026-05-04 04:24 58.10909 -68.39607 402 ft 138 kts 220°
2026-05-04 04:24 58.10194 -68.40834 201 ft 140 kts 220°
2026-05-04 04:24 58.09487 -68.42037 96 ft 131 kts 221°
2026-05-04 04:25 58.08901 -68.43040 97 ft 94 kts 222°
2026-05-04 04:25 58.08607 -68.43536 94 ft 25 kts 221°
2026-05-04 04:25 58.08518 -68.43630 95 ft 14 kts 182°
2026-05-04 04:25 58.08511 -68.43707 94 ft 9 kts 354°
2026-05-04 04:26 58.08570 -68.43619 97 ft 14 kts 43°
2026-05-04 04:26 58.08670 -68.43442 94 ft 27 kts 42°
2026-05-04 04:26 58.08830 -68.43169 94 ft 33 kts 42°
2026-05-04 04:26 58.09009 -68.42860 95 ft 36 kts 42°
2026-05-04 04:27 58.09182 -68.42563 90 ft 26 kts 42°
2026-05-04 04:27 58.09305 -68.42350 92 ft 23 kts 42°
2026-05-04 04:27 58.09431 -68.42136 97 ft 25 kts 42°
2026-05-04 04:27 58.09565 -68.41908 93 ft 26 kts 42°
2026-05-04 04:28 58.09670 -68.41730 90 ft 12 kts 37°
2026-05-04 04:28 58.09751 -68.41763 93 ft 14 kts 314°
2026-05-04 04:28 58.09815 -68.41899 97 ft 13 kts 313°
2026-05-04 04:28 58.09875 -68.42018 110 ft 11 kts 314°
2026-05-04 04:29 58.09930 -68.42023 116 ft 5 kts 43°
2026-05-04 04:29 58.09936 -68.41992 117 ft 2 kts 103°
2026-05-04 04:29 58.09916 -68.41957 111 ft 4 kts 132°
2026-05-04 04:29 58.09914 -68.41952 110 ft 0 kts 131°